Vorticity
9 6 4 5 4 4 4 5 4 6 9 15 32 24 4 4 5 6 6 3 2 4 5 6 9 7 9 10 10 10 10 11 10 9 8 9 7 6 8 7 9 8 5 5 7 7 7 8 8 8 8 9 11 13 13 12 11 10 9 8 6 4 2 1 2 2 3 4 4 4 5 4 5 4 4 5 6 7 6 6 8 6 6 6 7 8 8 7 9 10 9 9 8 8 9 10 9
12 9 6 6 4 5 8 5 10 13 10 19 23 10 3 4 6 6 4 3 2 3 3 5 8 6 7 7 8 9 8 10 10 10 8 7 7 7 7 8 8 8 8 6 7 8 8 8 8 8 7 7 7 9 9 9 8 8 7 5 2 1 1 2 3 3 4 4 3 4 4 5 7 5 4 7 7 9 9 7 6 6 7 7 7 8 8 8 8 9 9 10 9 9 9 9 8
9 10 9 9 8 8 8 7 22 23 8 15 13 4 6 4 4 6 4 2 1 4 3 4 7 6 6 5 7 9 7 7 7 8 7 7 6 6 6 8 8 7 8 7 6 8 9 8 7 6 5 5 5 7 7 6 6 5 3 1 0 2 2 3 3 4 5 3 3 3 3 6 6 6 7 8 7 10 10 7 4 5 6 7 7 5 5 6 6 8 9 9 9 10 11 10 9
5 6 6 8 11 9 8 10 18 15 6 8 6 5 5 3 5 7 6 3 4 6 4 5 7 6 6 6 7 7 8 7 6 7 7 8 6 5 5 6 8 7 10 9 5 7 9 8 7 5 4 5 5 6 6 5 4 2 1 0 2 3 3 5 4 3 4 3 3 4 5 6 6 8 8 8 9 9 9 8 6 5 6 5 6 7 6 7 7 6 5 5 6 7 8 9 9
4 5 4 6 10 8 6 5 8 9 7 5 5 7 4 4 6 7 7 6 8 6 4 7 7 7 7 6 7 6 8 7 7 9 7 7 7 5 4 5 6 7 11 10 5 8 8 6 6 5 5 5 6 6 5 4 2 1 0 1 2 3 4 4 3 3 4 4 4 5 6 7 8 8 7 9 10 8 8 9 8 6 5 5 8 9 7 8 9 8 8 8 9 8 7 7 9
5 7 5 7 7 11 15 5 4 8 6 6 7 5 4 7 5 5 6 6 7 6 6 7 8 9 8 9 8 6 7 7 7 10 7 6 6 5 4 4 6 7 11 9 6 8 7 6 5 4 5 4 6 6 4 3 1 1 1 2 3 4 4 3 3 4 5 4 3 6 7 8 7 7 8 9 8 8 7 7 8 6 5 7 7 6 6 7 7 9 13 12 11 12 12 11 11
8 7 3 8 4 18 40 19 3 7 4 4 4 4 6 5 3 4 5 6 6 7 7 7 10 8 8 12 9 6 6 6 7 9 7 6 6 5 5 5 6 7 9 8 7 8 6 6 4 3 5 4 6 6 4 2 1 1 2 4 4 3 3 4 4 4 6 6 4 5 7 9 9 8 9 10 10 8 6 6 7 5 5 7 5 4 6 6 7 8 10 11 11 12 14 15 13
8 6 1 7 2 20 47 22 3 7 3 2 3 5 5 2 3 5 5 7 5 5 6 8 10 7 9 12 8 6 6 7 8 9 8 6 6 5 5 5 5 7 9 7 7 8 6 6 4 4 5 4 5 6 5 3 2 2 3 4 4 3 2 3 4 5 6 6 5 5 7 9 10 9 8 10 11 8 6 5 5 6 5 5 5 5 6 6 8 8 6 9 12 12 11 14 13
6 6 2 8 6 14 28 12 5 7 3 4 5 4 4 3 4 6 6 6 6 5 6 9 9 7 11 11 7 7 6 6 6 8 8 6 5 5 6 6 6 7 8 7 7 7 6 6 5 5 4 4 5 5 5 4 3 4 3 3 3 4 4 4 4 5 5 5 5 6 8 9 10 9 8 10 10 9 7 4 4 6 5 4 5 6 5 5 7 8 7 9 11 11 10 10 10
5 7 6 12 16 10 9 8 7 5 4 5 4 3 4 4 4 6 6 5 6 7 7 9 9 9 11 10 8 7 7 6 6 8 8 6 4 4 6 7 7 7 8 7 8 8 6 5 4 4 4 4 4 4 4 4 4 5 4 2 3 4 4 5 5 5 5 7 7 8 9 8 10 10 9 9 10 10 8 6 5 5 6 5 4 5 4 4 5 6 9 9 8 7 8 7 6
3 10 11 11 19 14 5 8 8 6 5 6 5 3 3 5 6 5 5 5 6 7 8 9 9 10 9 8 7 6 7 7 6 8 8 6 4 4 5 6 7 7 8 7 8 8 6 5 4 4 4 4 4 4 4 4 5 5 4 3 5 5 4 5 6 7 6 8 8 7 9 9 9 10 9 8 9 10 9 8 6 6 7 6 5 6 5 6 8 8 10 10 7 5 6 6 5
3 14 16 12 22 21 7 4 8 7 4 5 4 2 4 6 6 5 4 5 6 6 8 9 8 10 10 7 6 5 6 7 6 7 8 6 4 4 5 5 6 7 8 7 8 8 6 5 5 4 4 4 5 5 5 5 4 5 5 5 6 6 5 6 7 8 8 7 7 7 8 8 9 9 9 8 8 9 9 8 6 6 6 6 6 7 8 7 8 9 9 9 7 6 6 5 5
6 16 14 15 24 20 9 4 6 9 7 6 3 3 5 5 6 4 3 5 7 7 6 8 9 11 11 8 6 6 5 6 5 7 8 6 5 4 5 5 5 7 8 7 7 7 7 6 6 5 5 5 5 6 6 6 5 4 5 6 6 6 6 6 6 8 8 7 6 7 8 9 9 9 8 8 9 8 8 9 8 6 6 6 5 7 9 8 8 9 8 6 5 6 6 6 6
6 13 10 12 17 14 11 7 4 5 5 4 3 4 4 5 5 4 3 4 7 8 7 7 7 9 12 9 6 6 5 5 4 7 8 6 5 4 5 6 5 6 7 8 6 6 7 6 7 6 6 5 5 6 5 5 5 5 5 5 5 5 6 6 7 7 7 7 5 6 8 9 9 9 8 9 9 8 8 10 9 8 7 6 6 6 8 9 9 9 9 7 5 5 6 6 7
3 10 10 7 8 21 21 7 3 1 2 3 4 5 4 6 5 4 4 3 5 6 7 7 5 7 11 11 8 7 5 4 4 6 8 6 5 5 5 5 5 6 6 7 7 6 6 7 6 6 5 5 5 6 5 5 5 5 5 5 5 5 6 7 7 6 6 7 5 6 8 9 8 9 9 8 9 9 9 9 9 9 8 8 8 6 7 10 9 9 10 8 7 6 5 6 6
1 7 10 5 9 35 30 6 3 1 2 4 4 5 5 6 5 4 4 5 5 6 8 7 7 7 10 11 9 9 6 3 4 6 7 6 6 5 5 5 5 6 6 6 7 6 6 6 6 5 5 5 5 6 6 5 4 6 5 5 6 6 7 7 7 7 7 6 6 6 7 8 7 8 9 9 9 9 9 9 9 9 9 10 10 10 9 8 7 8 9 9 9 7 6 6 6
0 3 8 8 13 33 22 1 7 4 0 3 2 5 5 5 5 4 5 6 5 6 11 9 7 6 8 10 11 11 6 4 5 5 6 5 5 5 5 5 5 6 6 6 6 7 6 6 6 5 5 5 5 5 6 6 6 7 6 6 7 7 7 7 7 7 6 6 7 7 8 8 6 7 8 9 10 8 9 9 8 7 8 10 11 13 11 8 7 7 9 11 11 10 10 9 8
2 3 3 6 12 22 6 -7 7 8 1 2 3 3 3 6 7 6 5 6 5 6 12 12 8 6 7 7 10 14 8 6 6 5 6 5 5 5 5 6 5 6 6 7 7 7 7 6 6 6 6 6 5 6 6 6 7 6 6 7 8 7 7 7 7 7 7 7 8 8 9 8 6 6 6 7 8 7 8 8 8 8 8 10 10 8 7 9 9 6 8 11 10 9 10 9 9
1 3 2 4 11 19 8 -3 7 10 2 3 4 1 2 4 6 7 5 6 5 5 12 14 9 5 7 5 8 16 11 7 8 6 6 5 6 5 5 6 6 7 7 7 7 7 7 7 7 6 7 7 6 7 6 5 6 7 7 8 7 6 6 7 8 7 7 7 7 8 10 10 8 6 6 6 7 7 7 7 8 8 8 10 11 10 8 8 7 7 11 14 11 8 7 8 8
1 2 5 7 8 13 12 8 11 10 2 1 5 1 3 4 4 7 6 6 4 3 8 13 13 7 6 5 6 15 12 7 8 6 6 6 7 7 6 6 6 7 7 7 7 7 7 7 7 7 7 7 7 7 6 6 6 7 7 7 6 6 6 7 9 8 7 7 7 8 10 10 10 9 8 7 7 7 7 8 8 8 8 8 9 11 9 8 7 4 5 9 6 3 5 7 7
2 2 6 8 5 7 9 8 9 12 4 -1 5 4 6 6 3 6 7 8 6 3 3 8 14 10 6 6 7 13 10 6 7 6 6 6 7 8 7 7 7 7 7 7 7 7 7 8 8 8 8 7 7 7 7 7 6 7 6 6 6 6 7 7 8 8 8 7 6 8 8 8 9 10 10 9 8 8 7 7 7 7 9 8 8 7 3 5 8 3 1 4 2 2 5 6 6
2 3 5 6 5 7 8 6 7 13 6 -2 5 8 8 7 4 6 6 7 8 6 5 5 9 10 9 7 8 11 8 6 7 6 6 6 5 6 6 6 7 7 7 7 7 7 7 7 8 7 8 8 7 6 6 6 6 6 6 7 7 7 8 7 6 7 8 7 7 8 7 6 7 8 10 10 10 9 7 6 7 7 8 7 9 10 7 9 14 12 11 11 9 7 6 6 6
3 2 2 4 6 8 9 8 7 12 9 2 7 8 7 5 3 6 5 5 8 8 9 8 7 9 9 9 10 9 8 8 7 6 6 5 5 5 6 6 7 7 6 6 6 6 7 7 7 7 7 7 6 5 5 6 6 6 7 7 8 8 7 7 7 7 7 7 7 8 7 7 8 8 9 9 9 9 8 6 6 7 7 6 8 9 10 12 13 12 10 8 7 6 5 6 6
5 4 1 1 6 7 8 9 10 14 10 7 10 7 4 3 4 6 5 6 7 7 8 9 7 7 7 9 11 9 9 10 7 7 6 5 6 6 6 6 7 7 6 6 6 6 7 6 6 6 6 6 5 5 5 5 6 6 7 7 6 7 8 9 10 9 8 8 9 8 8 8 9 9 8 8 9 9 8 7 7 7 7 7 8 8 8 9 8 8 6 5 6 5 5 6 6
5 6 2 -0 4 5 5 6 12 18 10 8 12 7 3 4 7 7 5 6 8 7 6 9 9 4 6 8 8 9 9 8 6 7 6 5 6 6 6 6 6 7 7 7 7 7 7 5 5 5 5 5 5 5 5 6 6 7 7 6 6 8 8 8 10 10 10 9 9 9 8 8 9 10 9 8 8 9 9 8 8 7 7 8 8 8 8 7 7 7 7 6 7 6 6 6 7
5 6 4 1 1 1 5 5 12 19 9 6 9 5 3 2 5 6 6 6 7 8 6 8 10 6 5 6 7 9 9 6 5 6 5 6 5 5 6 7 7 7 7 7 7 8 6 6 5 4 5 5 6 6 6 6 6 6 7 6 7 8 7 8 9 9 9 9 9 9 9 9 9 10 10 9 9 9 9 8 7 7 7 8 7 7 7 7 8 8 8 8 8 8 7 7 7
6 4 6 5 1 -0 4 6 10 13 7 8 8 4 3 1 4 4 4 6 5 7 7 6 9 9 5 5 5 7 9 6 5 6 7 6 6 5 6 6 7 7 7 7 8 8 6 6 5 5 5 5 6 6 6 7 6 6 6 6 6 6 6 8 8 8 8 8 8 9 9 9 10 10 9 8 9 8 8 7 7 7 7 7 7 7 8 8 9 9 9 9 8 8 8 7 7
2 2 8 6 2 1 2 5 6 7 7 9 7 5 3 1 6 7 4 6 6 6 8 7 7 10 8 5 4 5 8 8 6 6 7 8 7 5 6 6 6 7 7 7 7 7 6 6 5 5 5 6 6 6 7 6 5 6 6 5 3 3 6 8 8 8 8 8 8 10 11 10 10 10 8 7 8 8 7 7 6 6 5 6 6 7 8 9 10 11 11 11 10 10 9 7 6
1 2 5 2 2 4 3 3 4 9 11 7 7 10 8 5 5 5 6 5 5 6 7 8 6 8 10 7 6 5 6 9 10 9 7 8 7 6 7 6 7 7 7 7 7 7 6 5 5 5 5 6 6 6 7 6 5 4 4 5 2 3 7 9 8 8 9 9 9 10 11 11 11 10 9 8 8 7 6 6 5 4 4 5 7 8 9 10 10 11 11 10 10 10 9 7 6
4 2 1 2 1 6 10 2 1 11 12 9 12 9 3 8 8 2 6 5 4 5 5 7 7 7 10 9 7 6 4 7 10 10 8 8 7 7 7 6 7 7 7 7 8 8 7 6 6 5 5 6 5 5 6 7 7 4 1 5 5 6 9 9 8 8 8 8 9 11 11 11 11 11 10 9 8 7 6 5 4 5 6 8 9 10 10 10 9 10 10 10 10 9 9 7 6
6 -1 -0 7 -1 4 16 5 -2 4 8 9 14 16 9 8 9 3 4 6 4 5 4 6 7 7 9 9 8 7 4 5 7 9 9 9 8 7 6 7 7 7 8 7 7 9 8 7 6 5 5 6 5 5 6 8 10 7 3 4 5 8 10 8 7 7 7 8 8 10 11 11 10 10 9 8 6 5 5 5 5 6 8 9 10 10 10 9 8 8 8 8 8 8 8 7 7
6 -2 -0 11 2 -3 9 8 1 0 6 7 3 14 15 3 4 5 3 5 5 4 5 5 7 7 8 9 9 7 5 4 5 8 9 8 7 7 6 8 8 7 8 7 8 9 8 8 6 5 5 5 6 6 6 8 10 9 6 4 6 9 9 7 6 7 7 8 9 9 9 9 8 7 6 5 5 4 4 4 5 6 7 8 8 9 8 8 7 7 8 8 7 7 7 7 7
6 1 -2 8 5 -4 2 6 5 1 3 11 7 5 5 1 5 7 3 4 3 2 5 4 5 7 6 8 9 7 5 5 5 6 7 7 7 7 6 8 9 7 7 8 9 9 8 9 7 5 5 5 6 7 7 8 9 9 7 5 6 8 7 6 6 6 8 8 9 9 8 8 7 6 5 4 4 3 4 4 5 6 6 6 7 7 8 8 8 8 8 8 7 7 7 7 7
7 6 0 2 2 -0 3 2 6 7 1 9 16 6 4 9 9 7 4 3 2 2 4 3 3 5 5 8 10 8 5 4 5 4 5 7 7 7 6 6 8 7 6 7 8 8 8 9 8 6 6 6 6 7 8 8 8 8 8 7 7 7 6 6 6 6 7 7 8 9 8 7 7 6 5 4 4 4 4 4 5 6 6 5 6 6 7 8 8 9 9 9 8 8 8 8 7
8 9 5 4 2 3 4 1 6 8 1 4 10 5 6 8 5 5 4 3 4 4 5 5 3 2 4 6 9 11 9 6 6 5 4 6 7 8 7 5 7 8 7 6 7 8 8 8 7 6 6 7 7 8 8 8 8 9 9 9 7 7 6 6 6 5 6 6 7 8 7 7 7 6 6 5 5 5 5 5 6 6 6 6 6 5 6 6 6 7 7 7 7 7 7 6 6
8 6 5 7 6 7 3 2 6 3 1 3 3 4 5 4 3 3 4 5 6 6 5 6 4 1 2 4 7 10 12 10 8 7 4 5 7 7 7 5 5 8 7 6 6 7 8 7 6 7 7 8 8 9 8 8 10 10 9 8 7 6 6 6 5 5 5 6 6 7 7 7 7 7 7 7 7 6 6 6 6 6 6 6 7 6 6 6 6 6 6 6 6 6 6 6 7
13 8 7 6 4 10 4 0 6 2 3 4 -0 2 2 1 4 4 6 8 5 4 3 2 3 3 1 1 3 7 10 11 9 9 7 5 5 6 7 6 5 6 7 6 6 6 7 7 6 6 8 9 9 9 8 9 10 11 9 7 6 6 6 6 5 5 5 6 6 6 7 8 8 8 8 8 8 7 7 7 6 6 7 7 8 8 8 8 7 7 7 7 7 8 8 8 9
16 11 8 5 5 10 5 1 4 1 6 8 2 4 4 2 3 5 8 6 3 4 5 9 9 4 4 3 2 5 9 10 9 8 9 8 5 5 7 8 5 4 6 6 7 7 7 7 6 6 8 10 9 9 9 9 10 11 9 7 7 6 6 5 5 5 5 5 6 6 7 8 8 8 8 9 9 8 7 7 7 8 8 8 8 9 9 9 9 8 8 9 9 9 9 9 9
11 13 9 5 7 6 4 6 4 1 9 11 5 3 5 5 4 6 6 2 4 6 8 13 7 2 9 9 3 2 4 8 9 7 8 8 6 5 6 8 7 4 5 6 6 7 7 8 7 5 7 9 9 10 10 9 9 9 9 8 6 6 5 4 5 5 5 5 6 7 8 7 7 8 8 8 9 9 8 8 9 9 9 9 8 8 8 9 8 8 8 8 8 8 7 7 8
3 13 12 8 8 2 4 9 1 -1 7 9 8 5 4 7 5 6 6 3 6 7 9 9 0 1 11 12 9 4 1 5 8 6 7 8 6 5 5 6 8 5 5 5 5 7 7 8 8 6 6 9 10 11 10 8 7 7 8 7 6 6 5 4 5 5 5 6 7 7 7 7 7 7 7 8 8 9 8 8 9 8 8 8 7 7 7 7 7 6 7 7 7 7 6 6 6
0 8 7 7 13 5 3 8 1 0 3 3 8 6 3 7 6 6 7 6 9 8 10 9 2 2 7 11 15 9 2 5 7 7 8 8 6 5 5 5 6 7 5 5 5 6 6 8 9 8 7 8 11 12 11 8 7 7 7 7 5 5 5 5 5 5 5 6 6 7 7 7 6 6 6 6 7 8 7 7 7 7 7 6 6 6 5 5 5 5 6 6 6 5 5 5 4
0 3 3 7 17 10 3 6 3 3 5 3 5 5 6 9 4 5 5 2 6 6 6 7 3 5 6 7 14 10 5 7 7 8 11 10 7 4 5 4 4 7 6 4 5 5 5 7 9 9 9 9 10 11 10 8 8 7 6 6 6 5 6 6 5 5 5 5 5 6 6 6 5 5 5 5 5 5 6 6 6 6 6 5 5 5 5 5 4 5 5 5 5 4 4 4 3
-0 1 4 6 13 12 6 6 3 -0 4 6 4 -1 5 12 7 7 7 1 2 4 3 3 3 6 7 4 8 7 5 8 7 7 11 14 14 9 6 5 3 5 7 5 5 5 5 6 7 9 10 9 9 9 9 8 7 7 6 5 6 6 6 7 6 5 4 4 4 5 6 5 5 4 4 4 4 4 5 5 5 5 5 5 4 4 4 4 4 4 5 5 4 4 4 3 3
3 1 3 3 8 13 9 7 4 -1 0 6 7 -4 -5 9 10 3 4 1 2 3 1 3 4 6 7 5 5 3 1 6 6 4 6 10 16 15 9 7 4 3 6 6 5 4 5 7 7 8 10 9 8 8 8 8 6 6 6 5 6 6 6 6 7 6 4 4 3 4 5 5 5 4 4 4 4 4 4 4 5 5 5 5 4 4 4 4 3 3 4 5 4 4 4 3 3
7 4 2 1 4 10 11 10 5 3 4 4 7 1 -7 4 8 -0 1 2 0 3 2 3 6 4 5 7 8 6 3 4 5 5 4 3 10 16 12 8 6 4 4 6 6 4 4 6 7 7 9 9 7 7 8 8 7 6 5 6 6 5 5 5 6 6 5 4 4 4 4 5 5 4 5 5 5 4 4 5 5 6 6 5 5 4 4 4 3 3 3 4 4 4 4 4 4
10 8 5 1 1 5 10 11 6 4 7 2 2 5 -3 4 14 4 1 5 -0 1 4 4 6 4 4 7 8 9 8 7 7 4 2 1 3 9 12 10 8 6 3 4 6 6 4 4 5 7 8 8 6 7 8 9 8 7 7 7 6 5 6 5 6 6 5 5 5 5 5 5 5 5 5 5 5 6 5 5 6 6 7 6 6 5 5 5 4 4 4 3 3 4 4 4 5
11 11 10 4 0 2 5 9 9 6 8 4 3 7 -7 -6 17 12 -1 2 1 0 4 3 5 6 5 7 9 9 9 9 7 0 -2 1 2 4 9 11 11 10 7 4 4 7 6 4 4 5 7 8 6 6 8 8 9 9 9 9 8 7 6 5 6 6 5 5 5 5 6 6 6 6 6 6 7 7 6 6 6 6 6 7 7 7 7 7 6 6 5 5 4 4 4 4 4
11 11 13 10 4 2 0 4 8 8 10 6 4 12 -0 -13 8 16 2 1 3 1 4 4 5 6 5 7 10 9 8 9 9 6 3 3 4 4 5 9 11 11 11 9 6 6 7 6 5 4 5 7 6 7 8 8 8 9 10 11 9 7 5 5 6 6 6 5 5 5 6 7 7 7 7 8 8 7 7 7 7 7 7 7 7 8 8 8 8 8 8 7 7 6 6 5 4
9 9 10 12 10 7 3 1 4 6 8 5 4 15 10 -9 -1 14 7 2 5 4 3 4 4 5 5 4 8 10 9 9 11 9 5 4 5 4 3 7 10 9 10 12 10 8 7 6 6 4 4 5 5 6 8 8 8 8 9 10 9 7 5 5 6 6 6 5 5 5 5 6 7 8 8 9 10 10 9 8 8 8 8 8 8 8 9 9 8 9 9 9 10 9 8 7 6
8 9 8 10 12 10 8 4 0 1 2 -0 5 15 11 -2 -0 12 11 5 5 5 3 4 4 4 5 4 6 10 9 9 10 6 5 7 7 6 4 6 9 9 8 9 10 10 9 8 7 6 4 4 5 6 7 9 9 8 8 8 8 7 5 6 6 5 5 5 5 6 6 6 8 8 8 8 9 9 8 8 8 9 8 8 8 8 9 9 9 9 9 10 11 11 10 10 9
8 8 7 7 10 11 13 16 10 5 3 -1 2 8 7 4 4 9 13 9 5 6 3 4 6 4 5 4 4 7 9 10 10 7 6 6 6 8 8 6 8 10 9 8 8 9 10 9 7 7 5 4 4 5 7 8 9 8 7 7 8 7 6 7 6 5 5 5 6 7 7 7 7 7 6 5 6 6 6 7 7 8 8 8 8 8 8 8 7 8 8 10 11 11 11 10 10
10 9 8 4 7 4 3 14 19 13 13 11 7 3 2 5 6 6 13 11 6 9 7 4 7 5 3 2 2 5 10 11 10 7 5 4 3 7 11 10 7 7 9 10 8 7 9 9 8 7 6 5 4 5 6 7 7 7 7 7 7 6 6 6 6 6 5 5 5 6 6 6 5 5 5 5 5 4 4 5 6 6 6 6 7 7 8 8 8 7 7 8 9 10 11 11 10
9 11 12 7 8 5 -5 1 11 9 12 18 14 5 -0 2 5 4 9 12 9 10 11 7 7 6 2 1 2 5 9 12 12 8 6 7 5 4 10 14 10 6 8 10 10 8 8 7 7 7 6 5 5 5 6 7 7 6 6 6 6 6 6 6 5 6 5 5 5 5 4 5 5 5 6 6 6 6 5 6 6 6 5 6 6 6 7 8 8 8 8 8 9 9 11 12 11
7 8 11 10 9 11 6 5 10 6 7 17 19 13 6 2 7 6 2 7 11 10 11 11 8 7 4 2 3 5 7 12 14 10 9 10 7 4 7 11 12 8 7 7 7 7 7 7 6 5 6 5 4 5 6 7 7 6 5 5 6 7 6 6 5 5 5 5 5 5 5 5 5 6 6 7 8 7 7 7 7 7 7 6 6 6 7 8 8 9 9 9 10 10 11 13 13
5 4 7 9 7 10 9 6 9 6 4 9 11 13 14 8 8 12 7 3 6 8 10 11 9 7 5 4 4 4 6 10 12 12 11 9 7 6 6 9 11 8 7 8 9 8 7 7 7 6 5 4 4 6 7 7 7 6 5 5 5 6 6 6 6 6 6 5 5 6 7 6 5 5 5 6 8 8 9 9 8 8 8 8 8 8 8 8 9 9 10 10 11 10 11 13 13
5 5 6 7 5 7 9 7 9 9 7 12 10 6 10 12 7 9 12 8 4 4 8 9 9 6 3 4 7 6 6 8 10 10 9 9 7 5 7 9 8 6 6 7 10 12 10 8 8 7 6 5 4 5 6 7 7 6 5 5 5 6 6 6 6 6 6 6 6 7 7 6 5 4 4 5 7 9 10 10 9 9 9 9 9 9 9 9 9 10 10 11 11 9 9 13 14
5 5 5 7 4 4 6 4 4 1 -2 13 30 22 8 8 10 8 11 14 10 5 5 6 8 4 1 5 8 7 7 7 8 9 8 9 6 6 10 11 7 5 5 6 10 14 13 10 9 8 7 7 5 3 5 6 7 7 6 5 5 5 5 5 5 6 6 5 6 7 6 5 4 3 4 5 6 8 9 10 11 11 10 10 10 10 10 9 10 10 9 10 11 8 6 9 11
9 6 4 6 5 3 5 7 10 8 -10 -15 16 37 17 1 9 10 9 15 16 11 6 3 5 3 2 5 6 7 9 8 8 9 8 7 5 7 12 11 7 6 5 5 8 12 14 14 11 9 8 8 6 4 4 4 6 7 6 5 5 5 5 5 5 5 6 5 6 6 5 4 4 3 3 3 5 7 8 9 10 11 12 11 11 11 10 10 11 10 8 10 13 9 4 4 7
Height
5900 5900 5901 5901 5901 5901 5901 5901 5900 5900 5901 5901 5901 5901 5902 5904 5904 5905 5906 5906 5906 5906 5907 5908 5908 5908 5908 5908 5908 5908 5908 5908 5907 5907 5908 5907 5907 5908 5908 5908 5908 5908 5908 5908 5909 5910 5911 5911 5911 5912 5912 5913 5912 5913 5913 5913 5914 5915 5916 5917 5917 5918 5917 5917 5917 5917 5917 5916 5916 5917 5918 5918 5919 5919 5918 5917 5915 5914 5914 5914 5915 5916 5917 5917 5916 5915 5914 5914 5915 5915 5915 5916 5917 5917 5918 5919 5919
5900 5900 5901 5901 5901 5901 5901 5901 5900 5900 5901 5902 5902 5902 5903 5904 5905 5906 5906 5906 5907 5907 5907 5908 5909 5908 5908 5908 5909 5909 5909 5909 5908 5908 5908 5908 5908 5909 5909 5909 5909 5909 5909 5909 5910 5911 5912 5912 5912 5913 5913 5913 5913 5914 5914 5914 5915 5916 5917 5918 5918 5918 5918 5918 5918 5917 5917 5917 5917 5918 5919 5919 5920 5919 5919 5918 5916 5915 5915 5916 5918 5918 5917 5916 5916 5915 5914 5914 5915 5915 5915 5916 5916 5917 5918 5919 5919
5900 5901 5901 5901 5901 5902 5901 5901 5900 5900 5902 5902 5902 5903 5904 5905 5906 5907 5907 5907 5907 5907 5908 5909 5909 5909 5908 5909 5909 5910 5909 5909 5909 5909 5909 5908 5909 5909 5909 5909 5910 5911 5911 5911 5912 5912 5912 5912 5912 5912 5913 5913 5914 5915 5915 5915 5916 5917 5918 5919 5919 5920 5919 5919 5918 5918 5918 5918 5918 5919 5919 5920 5919 5919 5919 5919 5918 5917 5918 5920 5920 5920 5917 5916 5915 5915 5915 5915 5916 5916 5916 5915 5916 5916 5917 5918 5919
5901 5901 5901 5901 5901 5902 5902 5901 5900 5901 5902 5903 5904 5904 5905 5906 5907 5908 5907 5908 5908 5908 5908 5909 5909 5909 5909 5909 5910 5910 5910 5910 5910 5910 5909 5909 5909 5909 5909 5909 5911 5912 5913 5913 5913 5913 5913 5912 5913 5913 5914 5914 5915 5916 5916 5917 5917 5918 5919 5920 5921 5921 5921 5920 5920 5919 5920 5920 5919 5920 5920 5920 5920 5919 5919 5919 5919 5919 5919 5920 5920 5920 5919 5917 5917 5917 5918 5919 5919 5918 5918 5918 5917 5916 5916 5917 5919
5901 5901 5902 5901 5901 5901 5902 5901 5901 5902 5902 5904 5905 5905 5905 5906 5907 5908 5908 5908 5909 5909 5909 5910 5910 5909 5909 5910 5910 5911 5911 5911 5911 5911 5910 5911 5910 5910 5909 5910 5912 5913 5914 5914 5913 5914 5914 5914 5915 5915 5916 5916 5916 5917 5918 5918 5919 5920 5921 5922 5923 5923 5922 5922 5921 5921 5921 5921 5920 5920 5921 5920 5920 5919 5919 5919 5920 5920 5919 5918 5918 5919 5919 5919 5919 5918 5919 5919 5920 5920 5920 5921 5921 5920 5917 5916 5919
5902 5902 5902 5902 5901 5901 5901 5901 5902 5902 5903 5904 5905 5905 5906 5906 5907 5908 5909 5909 5909 5909 5909 5910 5910 5910 5910 5910 5911 5911 5912 5912 5912 5912 5912 5912 5912 5911 5911 5911 5912 5913 5914 5915 5915 5915 5915 5916 5917 5917 5917 5918 5918 5919 5920 5920 5921 5921 5923 5924 5924 5924 5923 5922 5921 5922 5922 5922 5922 5920 5920 5920 5920 5920 5919 5919 5921 5921 5920 5919 5919 5918 5918 5919 5919 5919 5919 5920 5920 5920 5921 5922 5924 5924 5921 5918 5919
5902 5902 5902 5902 5901 5900 5899 5901 5902 5903 5904 5905 5906 5906 5907 5907 5908 5909 5909 5909 5909 5909 5910 5911 5911 5911 5911 5911 5911 5912 5912 5913 5913 5914 5913 5913 5913 5912 5912 5913 5913 5914 5915 5916 5916 5917 5917 5918 5918 5918 5918 5919 5920 5921 5921 5922 5922 5923 5925 5926 5926 5925 5924 5923 5922 5922 5922 5923 5923 5921 5920 5920 5920 5920 5920 5920 5922 5923 5923 5921 5919 5919 5920 5920 5920 5921 5922 5922 5922 5922 5921 5922 5923 5925 5925 5923 5921
5902 5902 5903 5902 5901 5900 5899 5900 5902 5903 5904 5905 5906 5907 5907 5908 5909 5909 5909 5910 5910 5910 5910 5911 5911 5911 5912 5912 5912 5913 5913 5913 5914 5915 5914 5914 5914 5914 5914 5914 5915 5916 5916 5917 5918 5918 5918 5919 5919 5919 5920 5921 5921 5922 5922 5923 5923 5924 5926 5926 5926 5925 5925 5924 5924 5923 5922 5923 5923 5921 5920 5919 5920 5920 5921 5921 5922 5923 5922 5920 5918 5920 5922 5921 5921 5922 5924 5924 5925 5924 5924 5923 5924 5924 5926 5927 5924
5903 5903 5903 5902 5902 5901 5901 5901 5903 5904 5905 5906 5906 5907 5908 5908 5909 5909 5910 5910 5910 5910 5911 5912 5912 5912 5912 5912 5913 5913 5914 5914 5915 5916 5916 5915 5915 5915 5915 5915 5916 5917 5918 5918 5919 5919 5920 5920 5920 5920 5921 5922 5922 5923 5923 5924 5924 5925 5926 5926 5926 5926 5926 5926 5926 5925 5923 5923 5923 5922 5921 5920 5920 5920 5921 5922 5922 5921 5920 5919 5920 5922 5924 5923 5923 5924 5925 5926 5926 5926 5925 5925 5925 5925 5926 5928 5927
5902 5903 5903 5902 5902 5902 5902 5903 5904 5905 5905 5907 5908 5907 5909 5909 5910 5910 5910 5910 5911 5911 5912 5913 5913 5913 5913 5913 5913 5914 5914 5915 5915 5916 5917 5916 5916 5916 5916 5916 5917 5918 5918 5919 5920 5920 5921 5921 5921 5921 5922 5922 5923 5924 5924 5925 5925 5926 5926 5926 5927 5927 5927 5926 5927 5926 5925 5924 5924 5924 5923 5922 5921 5921 5921 5922 5922 5922 5922 5923 5924 5925 5926 5926 5926 5927 5927 5927 5927 5927 5927 5926 5927 5927 5927 5928 5928
5902 5903 5903 5902 5902 5902 5902 5903 5905 5905 5906 5908 5909 5908 5909 5910 5910 5910 5910 5911 5911 5912 5913 5913 5914 5914 5914 5914 5914 5914 5915 5915 5916 5917 5918 5917 5917 5917 5917 5917 5918 5918 5919 5920 5921 5921 5921 5921 5922 5922 5923 5924 5924 5925 5925 5926 5926 5925 5925 5926 5928 5928 5927 5927 5927 5927 5926 5925 5925 5924 5924 5924 5923 5923 5922 5922 5923 5923 5925 5926 5927 5927 5927 5928 5928 5929 5929 5929 5929 5929 5928 5928 5928 5928 5928 5929 5929
5902 5902 5902 5902 5902 5902 5902 5904 5905 5906 5907 5908 5909 5909 5910 5910 5911 5911 5911 5911 5912 5913 5913 5914 5914 5914 5915 5915 5915 5915 5916 5916 5917 5918 5919 5918 5918 5918 5918 5918 5919 5920 5920 5921 5921 5921 5922 5922 5923 5923 5924 5925 5926 5926 5926 5927 5927 5926 5926 5926 5928 5928 5928 5928 5928 5927 5926 5926 5925 5925 5925 5925 5924 5924 5924 5924 5925 5925 5926 5927 5927 5927 5928 5929 5930 5930 5930 5930 5930 5930 5930 5930 5930 5929 5929 5930 5930
5902 5902 5902 5902 5902 5902 5903 5905 5906 5907 5908 5909 5910 5910 5910 5910 5911 5911 5912 5912 5913 5913 5914 5914 5915 5915 5915 5915 5916 5916 5916 5916 5917 5919 5920 5919 5919 5919 5920 5920 5920 5921 5922 5922 5923 5923 5923 5923 5924 5925 5926 5926 5927 5927 5927 5928 5928 5927 5927 5927 5927 5928 5928 5927 5927 5927 5927 5927 5927 5927 5927 5926 5926 5925 5926 5926 5927 5927 5927 5927 5927 5927 5928 5929 5930 5931 5931 5931 5931 5931 5932 5932 5931 5931 5931 5931 5932
5902 5903 5903 5903 5902 5902 5903 5905 5907 5908 5909 5910 5910 5910 5910 5911 5911 5911 5912 5912 5913 5914 5914 5914 5914 5915 5916 5916 5917 5917 5916 5917 5918 5919 5921 5920 5920 5920 5921 5921 5921 5922 5923 5923 5924 5924 5924 5925 5925 5926 5927 5927 5927 5928 5928 5928 5929 5929 5929 5929 5928 5928 5928 5927 5927 5928 5928 5928 5928 5928 5928 5928 5927 5927 5927 5928 5928 5928 5928 5928 5928 5929 5930 5930 5931 5932 5932 5932 5932 5932 5933 5933 5933 5933 5933 5933 5933
5903 5903 5903 5903 5903 5903 5904 5905 5907 5908 5909 5909 5910 5910 5911 5911 5912 5912 5912 5913 5914 5914 5914 5915 5915 5915 5916 5917 5918 5918 5917 5917 5918 5920 5921 5921 5921 5921 5921 5922 5922 5923 5924 5925 5925 5925 5926 5926 5927 5927 5928 5928 5928 5928 5929 5929 5929 5930 5931 5931 5930 5930 5930 5930 5929 5930 5930 5929 5928 5928 5928 5928 5927 5927 5928 5929 5929 5929 5929 5928 5929 5931 5931 5931 5932 5933 5933 5933 5934 5934 5934 5935 5934 5933 5934 5934 5934
5903 5903 5903 5903 5903 5903 5904 5906 5907 5908 5909 5909 5910 5910 5911 5912 5912 5912 5913 5914 5914 5914 5914 5915 5916 5916 5916 5917 5918 5919 5918 5918 5918 5920 5921 5922 5922 5922 5922 5922 5923 5924 5925 5925 5926 5926 5927 5927 5928 5928 5929 5929 5929 5930 5931 5930 5930 5932 5932 5932 5932 5932 5932 5932 5932 5932 5932 5931 5930 5929 5929 5928 5928 5928 5928 5929 5929 5929 5929 5930 5931 5932 5932 5933 5934 5934 5934 5935 5935 5935 5935 5936 5935 5934 5934 5935 5935
5903 5904 5904 5904 5904 5903 5905 5907 5908 5909 5909 5910 5910 5911 5912 5912 5913 5913 5913 5914 5915 5915 5915 5916 5916 5916 5916 5918 5919 5920 5919 5918 5919 5920 5922 5922 5922 5922 5923 5923 5923 5924 5925 5926 5927 5927 5928 5928 5929 5929 5929 5930 5930 5931 5932 5932 5932 5932 5933 5933 5933 5933 5933 5933 5933 5933 5933 5932 5932 5931 5930 5930 5929 5929 5930 5930 5930 5930 5931 5932 5933 5933 5933 5934 5935 5935 5936 5936 5936 5935 5936 5937 5936 5935 5935 5936 5936
5903 5904 5904 5905 5905 5905 5906 5907 5908 5909 5910 5910 5911 5912 5912 5913 5913 5913 5914 5915 5915 5916 5916 5916 5917 5916 5917 5918 5920 5921 5920 5919 5920 5921 5922 5923 5923 5923 5923 5924 5924 5925 5926 5926 5927 5928 5928 5929 5929 5930 5930 5930 5931 5931 5932 5932 5932 5933 5933 5933 5934 5934 5934 5934 5934 5934 5934 5934 5933 5933 5932 5932 5931 5931 5931 5931 5931 5932 5933 5933 5934 5934 5935 5936 5936 5936 5937 5937 5936 5936 5938 5940 5938 5936 5936 5937 5937
5903 5904 5905 5905 5905 5906 5907 5908 5908 5909 5911 5911 5912 5912 5913 5913 5914 5914 5915 5915 5916 5916 5917 5917 5917 5917 5917 5918 5920 5922 5921 5921 5921 5922 5923 5923 5924 5924 5924 5925 5925 5926 5926 5927 5928 5928 5929 5929 5930 5931 5931 5931 5932 5932 5933 5933 5933 5934 5934 5934 5935 5935 5935 5935 5935 5935 5935 5935 5935 5934 5934 5934 5933 5933 5933 5933 5933 5934 5934 5935 5935 5936 5936 5937 5937 5938 5939 5938 5937 5936 5939 5941 5939 5937 5937 5937 5938
5903 5904 5905 5905 5906 5906 5907 5908 5909 5910 5911 5912 5912 5913 5913 5914 5914 5915 5916 5916 5916 5917 5917 5918 5918 5918 5918 5918 5920 5922 5922 5921 5922 5923 5924 5924 5925 5925 5925 5926 5926 5927 5927 5928 5929 5929 5930 5930 5931 5931 5932 5932 5933 5933 5934 5934 5934 5935 5935 5935 5935 5936 5936 5936 5936 5936 5936 5936 5935 5935 5935 5936 5936 5935 5935 5935 5935 5936 5936 5936 5936 5937 5938 5938 5939 5940 5940 5939 5937 5938 5941 5941 5939 5938 5939 5938 5939
5903 5905 5905 5905 5906 5906 5907 5908 5908 5910 5911 5912 5912 5913 5914 5914 5915 5915 5916 5917 5917 5917 5917 5918 5918 5919 5919 5919 5920 5922 5922 5922 5923 5924 5924 5925 5925 5926 5926 5927 5927 5928 5928 5929 5930 5930 5930 5931 5931 5932 5932 5933 5934 5934 5935 5935 5936 5936 5936 5936 5936 5937 5937 5937 5936 5936 5936 5937 5936 5936 5937 5937 5937 5937 5937 5937 5937 5937 5937 5937 5937 5938 5938 5939 5940 5941 5940 5939 5939 5941 5942 5942 5941 5940 5940 5940 5940
5903 5904 5905 5905 5906 5907 5907 5908 5909 5910 5911 5912 5913 5914 5914 5914 5915 5915 5916 5917 5918 5918 5918 5918 5918 5919 5919 5920 5920 5922 5923 5922 5924 5924 5925 5925 5926 5927 5927 5928 5928 5929 5929 5930 5930 5931 5931 5932 5932 5933 5934 5934 5935 5935 5936 5936 5937 5937 5937 5937 5937 5938 5938 5937 5937 5937 5937 5937 5937 5937 5938 5938 5938 5938 5938 5938 5939 5939 5939 5939 5939 5938 5939 5939 5940 5940 5940 5940 5941 5942 5941 5940 5941 5940 5940 5941 5942
5903 5904 5905 5905 5906 5907 5908 5908 5909 5910 5911 5912 5913 5914 5914 5914 5915 5915 5916 5917 5918 5918 5918 5918 5918 5919 5920 5921 5921 5923 5923 5923 5924 5925 5925 5926 5927 5927 5928 5929 5929 5929 5930 5930 5931 5931 5932 5933 5933 5934 5935 5935 5936 5936 5937 5937 5938 5938 5938 5939 5939 5938 5938 5938 5938 5938 5938 5938 5938 5939 5939 5939 5939 5940 5940 5940 5940 5940 5940 5940 5940 5940 5940 5939 5939 5939 5940 5941 5942 5941 5939 5939 5939 5939 5940 5942 5943
5902 5903 5904 5905 5906 5906 5907 5908 5909 5910 5911 5912 5913 5914 5914 5915 5916 5916 5916 5917 5917 5918 5918 5919 5919 5919 5920 5921 5922 5923 5923 5924 5925 5926 5926 5927 5928 5928 5929 5929 5930 5930 5931 5931 5932 5933 5933 5934 5934 5935 5935 5936 5936 5937 5938 5938 5939 5939 5940 5940 5940 5939 5939 5939 5939 5939 5939 5939 5939 5939 5940 5940 5940 5941 5941 5941 5941 5941 5942 5942 5941 5941 5941 5940 5940 5940 5941 5941 5941 5940 5939 5939 5940 5941 5942 5943 5945
5901 5903 5904 5905 5906 5906 5907 5907 5908 5909 5910 5912 5913 5914 5914 5915 5916 5916 5916 5917 5917 5918 5919 5919 5919 5919 5920 5922 5923 5923 5924 5924 5925 5926 5926 5927 5928 5929 5929 5930 5930 5931 5932 5932 5933 5934 5934 5935 5935 5936 5936 5937 5937 5938 5938 5939 5940 5940 5941 5941 5941 5941 5940 5940 5940 5940 5940 5940 5940 5940 5940 5941 5941 5941 5942 5943 5943 5943 5943 5943 5943 5943 5942 5942 5942 5942 5942 5942 5941 5941 5941 5941 5942 5943 5944 5946 5947
5901 5902 5903 5904 5905 5906 5906 5907 5908 5909 5910 5911 5912 5913 5914 5915 5915 5916 5917 5917 5917 5918 5919 5920 5920 5920 5920 5922 5923 5924 5924 5924 5925 5926 5926 5927 5928 5929 5930 5930 5931 5932 5932 5933 5934 5935 5935 5936 5936 5937 5937 5938 5938 5939 5939 5940 5940 5941 5942 5942 5942 5942 5942 5942 5942 5942 5942 5942 5942 5941 5942 5942 5942 5942 5943 5944 5944 5944 5944 5944 5944 5944 5944 5944 5944 5944 5944 5943 5943 5942 5943 5943 5944 5945 5947 5948 5949
5900 5901 5903 5904 5905 5906 5906 5907 5907 5909 5910 5911 5912 5913 5914 5914 5915 5916 5917 5917 5918 5918 5919 5920 5920 5921 5921 5922 5923 5924 5925 5925 5925 5926 5927 5927 5928 5929 5930 5931 5931 5932 5933 5934 5935 5936 5936 5937 5937 5938 5938 5939 5939 5940 5940 5941 5941 5942 5943 5943 5943 5943 5943 5943 5943 5943 5943 5943 5943 5943 5943 5943 5943 5943 5943 5944 5945 5945 5946 5946 5946 5946 5946 5946 5946 5946 5946 5945 5945 5945 5945 5946 5947 5948 5949 5950 5951
5899 5900 5902 5903 5905 5906 5906 5906 5907 5908 5910 5911 5912 5913 5913 5914 5915 5916 5917 5917 5918 5918 5919 5920 5920 5921 5922 5923 5923 5924 5925 5926 5927 5927 5927 5928 5928 5929 5930 5931 5932 5933 5934 5935 5935 5936 5937 5938 5938 5938 5939 5940 5940 5941 5941 5942 5942 5943 5944 5944 5944 5944 5944 5945 5945 5945 5944 5944 5944 5944 5944 5944 5944 5944 5944 5945 5946 5946 5947 5947 5947 5948 5948 5948 5948 5948 5947 5947 5947 5947 5948 5949 5949 5950 5951 5952 5953
5898 5900 5901 5903 5904 5905 5906 5906 5907 5908 5910 5911 5911 5912 5912 5913 5914 5916 5916 5917 5918 5918 5919 5920 5920 5921 5922 5923 5924 5925 5925 5926 5928 5928 5928 5929 5929 5930 5931 5932 5933 5933 5934 5935 5936 5937 5937 5938 5939 5939 5940 5940 5941 5941 5942 5943 5943 5944 5944 5945 5945 5945 5945 5945 5945 5946 5945 5945 5945 5945 5945 5945 5945 5946 5946 5946 5947 5948 5948 5949 5949 5949 5950 5949 5949 5949 5949 5949 5949 5950 5950 5951 5952 5953 5953 5954 5955
5897 5899 5900 5902 5903 5904 5905 5906 5907 5908 5909 5910 5911 5912 5912 5912 5913 5915 5916 5916 5917 5918 5919 5919 5920 5921 5922 5923 5924 5925 5925 5927 5928 5929 5929 5929 5930 5931 5931 5932 5933 5934 5934 5935 5936 5937 5938 5938 5939 5940 5940 5941 5942 5942 5943 5943 5944 5945 5945 5946 5946 5946 5946 5946 5946 5946 5946 5946 5946 5946 5947 5947 5947 5947 5948 5948 5949 5949 5950 5950 5951 5951 5951 5951 5951 5951 5951 5951 5951 5952 5952 5953 5954 5955 5955 5956 5957
5896 5897 5899 5901 5902 5903 5904 5905 5906 5907 5908 5909 5911 5912 5912 5912 5913 5914 5915 5916 5917 5918 5918 5919 5920 5921 5922 5923 5924 5925 5926 5926 5928 5929 5929 5930 5930 5931 5932 5932 5933 5934 5935 5935 5936 5937 5938 5939 5940 5940 5941 5942 5942 5943 5943 5944 5945 5945 5946 5946 5946 5947 5947 5947 5947 5947 5947 5947 5947 5947 5948 5948 5948 5949 5949 5950 5950 5951 5952 5952 5952 5952 5953 5953 5953 5953 5953 5953 5953 5954 5954 5955 5956 5957 5957 5958 5959
5895 5896 5898 5899 5901 5902 5902 5904 5905 5906 5907 5909 5911 5911 5912 5912 5912 5914 5915 5916 5917 5917 5918 5919 5920 5921 5922 5923 5924 5925 5926 5926 5927 5929 5929 5930 5930 5931 5932 5933 5933 5934 5935 5936 5937 5938 5939 5939 5940 5941 5942 5942 5943 5944 5944 5944 5945 5945 5946 5947 5947 5947 5948 5948 5948 5948 5948 5948 5948 5949 5949 5949 5950 5950 5951 5951 5952 5952 5953 5954 5954 5954 5954 5954 5954 5954 5954 5955 5955 5956 5956 5957 5958 5958 5959 5960 5960
5893 5895 5897 5898 5900 5901 5901 5903 5904 5906 5907 5908 5910 5910 5911 5912 5912 5913 5915 5916 5917 5917 5918 5919 5920 5921 5922 5923 5924 5924 5925 5926 5927 5928 5929 5930 5930 5931 5932 5933 5934 5934 5935 5936 5937 5938 5939 5940 5941 5941 5942 5943 5943 5944 5944 5945 5945 5946 5946 5947 5947 5948 5949 5949 5949 5949 5949 5949 5950 5950 5950 5950 5951 5952 5952 5953 5953 5954 5954 5955 5955 5955 5956 5956 5956 5956 5956 5957 5957 5958 5958 5959 5960 5960 5961 5962 5962
5891 5893 5896 5897 5899 5900 5900 5901 5903 5905 5906 5907 5908 5910 5910 5911 5912 5913 5915 5916 5917 5917 5918 5919 5920 5921 5922 5923 5924 5924 5925 5926 5927 5928 5929 5930 5931 5932 5933 5934 5934 5935 5936 5937 5938 5939 5939 5940 5941 5942 5943 5943 5944 5944 5945 5945 5945 5946 5947 5947 5948 5949 5949 5950 5950 5950 5951 5951 5951 5951 5951 5952 5952 5953 5953 5954 5955 5955 5956 5956 5957 5957 5957 5957 5958 5958 5958 5959 5959 5960 5960 5961 5962 5962 5963 5963 5964
5889 5892 5895 5896 5898 5898 5899 5900 5902 5904 5905 5906 5907 5909 5910 5911 5912 5914 5915 5916 5917 5918 5919 5919 5920 5921 5922 5923 5923 5924 5925 5926 5927 5928 5929 5930 5931 5932 5932 5933 5934 5935 5936 5937 5938 5939 5939 5940 5941 5942 5943 5944 5944 5944 5945 5945 5946 5946 5947 5948 5949 5949 5950 5950 5951 5951 5952 5952 5952 5952 5952 5953 5953 5954 5955 5955 5956 5957 5957 5958 5958 5958 5959 5959 5959 5960 5960 5961 5961 5962 5962 5963 5963 5964 5965 5965 5966
5886 5890 5892 5894 5895 5896 5898 5900 5901 5903 5905 5906 5907 5908 5910 5911 5913 5914 5916 5917 5918 5918 5919 5920 5920 5921 5922 5923 5923 5924 5925 5926 5927 5928 5929 5930 5931 5932 5932 5933 5934 5935 5936 5937 5938 5939 5940 5940 5941 5942 5943 5944 5944 5945 5945 5946 5946 5947 5948 5949 5950 5950 5951 5951 5952 5952 5953 5953 5953 5953 5953 5954 5954 5955 5956 5956 5957 5958 5958 5959 5959 5960 5960 5960 5961 5961 5962 5962 5963 5963 5964 5964 5965 5966 5966 5967 5968
5885 5888 5890 5892 5894 5895 5897 5899 5900 5902 5903 5905 5906 5908 5910 5911 5913 5915 5916 5917 5918 5919 5919 5920 5920 5920 5921 5922 5923 5924 5925 5926 5926 5928 5929 5930 5931 5931 5933 5934 5934 5935 5936 5937 5938 5939 5940 5941 5941 5942 5943 5944 5945 5946 5946 5947 5948 5948 5949 5949 5950 5951 5951 5952 5952 5953 5953 5954 5954 5954 5954 5955 5955 5956 5956 5957 5958 5959 5960 5960 5960 5961 5961 5962 5962 5962 5963 5964 5964 5965 5965 5966 5966 5967 5968 5968 5969
5885 5887 5889 5891 5892 5893 5896 5898 5899 5901 5902 5904 5906 5908 5910 5911 5913 5914 5916 5917 5918 5919 5920 5921 5921 5921 5921 5921 5922 5923 5925 5925 5926 5927 5928 5929 5930 5931 5932 5933 5934 5935 5936 5937 5938 5939 5940 5941 5942 5942 5943 5944 5945 5946 5947 5948 5949 5949 5950 5950 5951 5951 5952 5952 5953 5954 5954 5955 5955 5955 5955 5956 5956 5956 5957 5958 5959 5960 5961 5961 5961 5962 5962 5963 5963 5964 5964 5965 5966 5966 5967 5967 5968 5968 5969 5970 5970
5883 5885 5887 5889 5889 5892 5896 5897 5898 5899 5901 5903 5905 5907 5909 5911 5913 5914 5914 5916 5917 5919 5921 5922 5922 5922 5922 5922 5922 5923 5924 5925 5926 5926 5927 5929 5930 5931 5932 5933 5934 5935 5936 5937 5938 5940 5940 5941 5942 5943 5944 5945 5946 5947 5948 5949 5949 5950 5950 5951 5951 5951 5952 5953 5953 5954 5955 5956 5956 5956 5956 5957 5957 5957 5958 5959 5960 5961 5962 5962 5963 5963 5963 5964 5964 5965 5966 5966 5967 5967 5968 5968 5969 5969 5970 5971 5972
5881 5883 5886 5887 5888 5892 5893 5893 5896 5898 5899 5902 5903 5906 5909 5911 5912 5913 5914 5916 5917 5918 5920 5921 5921 5921 5922 5923 5923 5923 5923 5924 5925 5926 5927 5928 5929 5930 5931 5932 5934 5935 5936 5937 5938 5939 5940 5941 5942 5943 5944 5945 5946 5948 5949 5949 5950 5950 5951 5951 5951 5952 5952 5953 5954 5955 5956 5956 5957 5957 5957 5958 5958 5959 5959 5960 5960 5962 5963 5963 5964 5964 5965 5965 5966 5966 5967 5967 5968 5969 5969 5970 5970 5971 5971 5972 5973
5878 5881 5883 5883 5885 5888 5888 5892 5896 5897 5899 5901 5903 5906 5908 5910 5912 5913 5915 5915 5916 5917 5918 5918 5918 5920 5921 5922 5923 5923 5924 5924 5925 5926 5926 5927 5928 5929 5931 5932 5933 5934 5935 5937 5938 5939 5940 5941 5942 5943 5944 5945 5947 5948 5949 5949 5950 5950 5950 5950 5951 5952 5953 5954 5955 5956 5957 5957 5958 5958 5958 5959 5959 5960 5960 5961 5961 5962 5963 5964 5965 5965 5966 5966 5967 5967 5968 5969 5969 5970 5971 5971 5972 5972 5973 5973 5974
5875 5878 5880 5880 5883 5885 5888 5893 5895 5896 5899 5900 5902 5905 5907 5909 5910 5911 5912 5913 5914 5915 5915 5916 5917 5918 5920 5921 5922 5923 5923 5924 5925 5926 5926 5927 5928 5929 5930 5931 5932 5934 5935 5936 5938 5939 5940 5941 5942 5943 5944 5945 5946 5948 5948 5949 5950 5950 5950 5951 5952 5953 5954 5955 5956 5957 5957 5958 5959 5959 5960 5960 5960 5961 5961 5962 5962 5963 5964 5965 5966 5966 5967 5967 5968 5969 5969 5970 5970 5971 5972 5972 5973 5973 5974 5974 5975
5872 5874 5876 5878 5881 5884 5887 5891 5893 5895 5896 5898 5901 5903 5905 5906 5906 5908 5910 5911 5912 5913 5914 5915 5917 5918 5919 5920 5921 5921 5922 5923 5924 5925 5926 5927 5928 5929 5930 5931 5932 5933 5934 5936 5937 5939 5940 5941 5942 5943 5944 5945 5946 5947 5948 5949 5950 5950 5951 5952 5953 5954 5955 5956 5956 5957 5958 5959 5959 5960 5960 5961 5961 5962 5962 5963 5963 5964 5964 5965 5966 5967 5967 5968 5969 5969 5970 5971 5971 5972 5973 5973 5974 5975 5975 5975 5976
5868 5869 5873 5876 5879 5882 5885 5889 5891 5891 5891 5897 5900 5901 5903 5903 5904 5907 5907 5908 5911 5913 5914 5915 5917 5918 5918 5920 5921 5921 5921 5922 5922 5924 5925 5926 5927 5928 5929 5930 5931 5932 5934 5935 5937 5938 5940 5941 5942 5943 5944 5945 5946 5947 5948 5949 5950 5950 5951 5952 5954 5955 5955 5956 5957 5957 5958 5959 5960 5960 5961 5962 5962 5963 5963 5964 5964 5965 5965 5966 5967 5968 5968 5969 5969 5970 5971 5971 5972 5973 5974 5974 5975 5975 5976 5976 5976
5864 5867 5872 5874 5876 5879 5882 5886 5888 5887 5892 5897 5898 5899 5902 5901 5902 5906 5906 5907 5911 5912 5913 5914 5915 5916 5917 5919 5921 5921 5922 5922 5922 5922 5923 5924 5925 5927 5928 5929 5930 5932 5933 5934 5936 5937 5939 5941 5942 5943 5944 5945 5946 5947 5948 5949 5950 5951 5952 5953 5954 5955 5955 5956 5957 5957 5958 5959 5960 5960 5961 5962 5963 5964 5964 5965 5966 5966 5966 5967 5967 5968 5969 5969 5970 5971 5971 5972 5973 5974 5974 5975 5975 5976 5976 5977 5977
5861 5867 5870 5871 5874 5877 5880 5883 5884 5886 5891 5894 5895 5899 5901 5899 5900 5903 5904 5906 5909 5911 5912 5913 5914 5915 5916 5918 5919 5921 5922 5922 5923 5923 5922 5923 5924 5925 5926 5927 5929 5931 5932 5934 5935 5937 5938 5940 5942 5943 5944 5945 5945 5946 5947 5949 5950 5951 5952 5953 5954 5955 5955 5955 5956 5957 5958 5959 5959 5960 5961 5962 5963 5964 5965 5966 5966 5967 5967 5967 5968 5969 5969 5970 5970 5971 5972 5972 5973 5974 5975 5975 5976 5976 5977 5977 5977
5860 5865 5867 5869 5872 5875 5878 5881 5882 5885 5889 5892 5894 5897 5898 5897 5897 5899 5902 5905 5907 5909 5910 5911 5913 5914 5915 5917 5918 5920 5921 5921 5922 5923 5922 5923 5924 5925 5926 5927 5929 5931 5932 5933 5935 5936 5938 5939 5941 5942 5944 5945 5945 5946 5947 5948 5949 5950 5952 5953 5954 5954 5955 5955 5956 5957 5958 5959 5959 5960 5961 5962 5963 5964 5965 5966 5967 5967 5968 5968 5968 5969 5969 5970 5971 5971 5972 5972 5973 5974 5975 5975 5976 5977 5977 5978 5978
5859 5861 5864 5867 5870 5872 5876 5878 5880 5884 5887 5890 5892 5894 5896 5895 5893 5896 5900 5903 5905 5907 5909 5910 5911 5912 5914 5915 5917 5918 5919 5920 5920 5921 5922 5923 5924 5925 5926 5927 5929 5930 5932 5934 5935 5936 5937 5938 5940 5941 5943 5944 5945 5946 5947 5948 5948 5950 5951 5953 5953 5954 5954 5955 5956 5957 5958 5959 5960 5960 5962 5962 5963 5964 5965 5966 5967 5968 5968 5968 5969 5969 5969 5970 5970 5971 5972 5972 5973 5974 5975 5975 5976 5977 5977 5978 5978
5855 5857 5861 5865 5867 5870 5873 5874 5877 5882 5885 5887 5889 5892 5894 5891 5891 5895 5898 5901 5903 5905 5907 5909 5910 5911 5912 5914 5916 5917 5918 5919 5920 5920 5921 5922 5923 5925 5926 5927 5928 5929 5931 5933 5934 5935 5936 5938 5939 5940 5941 5943 5944 5945 5946 5947 5948 5949 5950 5952 5953 5953 5954 5955 5956 5956 5958 5959 5960 5961 5962 5963 5964 5965 5965 5966 5967 5968 5968 5969 5969 5969 5969 5970 5970 5971 5972 5972 5973 5974 5974 5975 5976 5976 5977 5977 5978
5852 5855 5858 5862 5864 5867 5869 5870 5875 5879 5881 5883 5887 5891 5890 5888 5890 5894 5895 5898 5901 5903 5906 5907 5909 5910 5911 5912 5914 5916 5917 5918 5919 5920 5920 5921 5922 5924 5925 5926 5927 5928 5929 5931 5932 5934 5935 5937 5938 5939 5940 5941 5943 5944 5946 5946 5947 5948 5949 5950 5952 5952 5953 5954 5955 5956 5957 5958 5959 5960 5962 5963 5964 5964 5965 5966 5967 5967 5968 5969 5969 5970 5970 5970 5971 5971 5972 5972 5973 5973 5974 5975 5975 5976 5976 5977 5977
5849 5852 5856 5859 5862 5865 5868 5870 5873 5876 5878 5881 5887 5889 5886 5885 5889 5891 5893 5896 5898 5901 5904 5906 5907 5909 5909 5911 5913 5914 5916 5917 5918 5920 5920 5921 5922 5923 5924 5925 5926 5926 5927 5929 5930 5932 5934 5935 5937 5938 5939 5940 5941 5943 5944 5945 5946 5947 5949 5950 5951 5951 5953 5954 5955 5956 5957 5958 5959 5960 5961 5962 5963 5964 5965 5965 5966 5967 5968 5969 5969 5970 5970 5970 5971 5971 5972 5972 5973 5973 5973 5974 5975 5975 5976 5976 5976
5846 5849 5853 5855 5857 5861 5865 5867 5869 5874 5877 5880 5884 5883 5879 5882 5887 5889 5891 5894 5896 5899 5901 5903 5905 5907 5908 5910 5911 5913 5914 5915 5917 5918 5919 5920 5921 5922 5924 5924 5924 5924 5925 5927 5929 5930 5932 5934 5935 5937 5938 5939 5940 5941 5943 5944 5945 5947 5948 5949 5950 5951 5952 5953 5955 5955 5956 5957 5959 5960 5961 5962 5963 5964 5964 5965 5965 5966 5967 5968 5969 5969 5970 5970 5971 5971 5972 5972 5973 5973 5973 5973 5974 5975 5975 5975 5976
5842 5846 5849 5851 5853 5858 5861 5862 5866 5871 5874 5875 5877 5876 5876 5881 5885 5886 5888 5890 5893 5896 5898 5901 5903 5905 5906 5908 5910 5911 5912 5913 5915 5916 5918 5919 5920 5921 5923 5924 5924 5924 5924 5925 5927 5928 5930 5932 5933 5935 5937 5938 5939 5940 5942 5943 5945 5946 5947 5948 5949 5950 5951 5953 5954 5955 5956 5957 5958 5959 5960 5961 5962 5963 5963 5964 5965 5965 5966 5967 5968 5969 5969 5970 5970 5971 5971 5972 5972 5973 5973 5973 5974 5974 5975 5975 5976
5840 5843 5844 5847 5852 5856 5859 5861 5864 5868 5871 5872 5872 5872 5874 5880 5881 5881 5885 5887 5890 5893 5896 5898 5900 5902 5905 5906 5908 5909 5910 5911 5913 5914 5916 5917 5918 5919 5921 5923 5923 5923 5924 5924 5925 5926 5928 5929 5931 5933 5935 5936 5938 5939 5940 5942 5944 5945 5946 5947 5948 5949 5950 5951 5953 5954 5955 5957 5958 5959 5960 5960 5961 5961 5962 5963 5964 5965 5965 5966 5967 5968 5968 5969 5970 5970 5971 5971 5972 5972 5973 5973 5974 5974 5975 5975 5976
5837 5839 5841 5845 5849 5852 5855 5859 5860 5865 5869 5868 5867 5867 5871 5875 5874 5876 5881 5885 5888 5891 5893 5896 5898 5900 5903 5904 5906 5907 5908 5909 5910 5912 5914 5914 5916 5916 5918 5920 5921 5922 5923 5924 5924 5924 5926 5927 5929 5931 5933 5934 5936 5937 5939 5941 5942 5943 5944 5945 5947 5948 5949 5951 5952 5954 5955 5956 5957 5958 5959 5959 5960 5961 5961 5962 5963 5964 5965 5965 5966 5967 5968 5968 5969 5970 5970 5971 5971 5972 5972 5973 5974 5974 5975 5975 5976
5834 5836 5840 5842 5845 5847 5851 5855 5857 5863 5867 5864 5863 5865 5868 5869 5868 5872 5879 5882 5886 5889 5891 5894 5896 5898 5900 5902 5904 5905 5906 5907 5908 5910 5911 5912 5913 5914 5915 5917 5919 5921 5922 5922 5923 5924 5925 5926 5927 5929 5931 5932 5934 5936 5938 5939 5940 5942 5943 5944 5945 5947 5948 5950 5951 5953 5954 5955 5956 5957 5958 5959 5959 5960 5960 5961 5962 5963 5964 5964 5965 5966 5967 5967 5968 5969 5970 5970 5971 5971 5972 5972 5973 5974 5975 5976 5976
5831 5833 5836 5838 5842 5844 5847 5850 5853 5858 5863 5862 5862 5861 5861 5864 5866 5871 5876 5879 5882 5886 5888 5891 5893 5896 5898 5900 5901 5903 5903 5904 5905 5907 5909 5910 5911 5911 5913 5914 5916 5918 5920 5920 5922 5923 5923 5924 5926 5927 5929 5931 5933 5935 5936 5938 5939 5941 5942 5943 5944 5945 5947 5948 5950 5952 5953 5954 5955 5956 5957 5958 5959 5959 5959 5960 5961 5962 5963 5964 5964 5965 5966 5967 5967 5968 5969 5969 5970 5970 5971 5972 5973 5974 5975 5976 5976
5828 5830 5832 5836 5839 5841 5844 5847 5850 5854 5857 5859 5860 5856 5855 5862 5866 5869 5873 5876 5879 5883 5885 5888 5891 5893 5895 5897 5899 5900 5900 5901 5902 5904 5906 5907 5908 5909 5911 5912 5914 5916 5917 5918 5920 5921 5922 5923 5924 5926 5927 5929 5931 5932 5934 5936 5937 5939 5940 5941 5943 5944 5945 5947 5948 5950 5952 5953 5954 5955 5956 5957 5958 5958 5959 5959 5960 5961 5962 5963 5964 5964 5965 5966 5966 5967 5968 5968 5969 5970 5970 5971 5972 5973 5974 5975 5976